Hourly Data Report for April 13, 2021

CARBERRY CS
MANITOBA
Current Station Operator: ECCC - MSC

49°54'20.900" N
99°21'26.800" W
383.50 m
5010547
71170
WZE

Download Data

Hourly Data (April 2021)
Hourly Data Report for April 13, 2021
TIME
LST
Temp Definition
°C
Dew Point Definition
°C
Rel Hum Definition
%
Precip. Amount Definition
mm

Wind Dir Definition
10's deg

Wind Spd Definition
km/h
Visibility Definition
km
Stn Press Definition
kPa
Hmdx Definition


Wind Chill Definition


Weather Definition


00:00 -6.0 -7.6 89 0.0 36 26   97.19   -14 LegendNANA
01:00 -6.0 -7.3 90 0.0 35 23   97.21   -13 LegendNANA
02:00 -6.0 -7.4 90 0.6 35 23   97.20   -13 LegendNANA
03:00 -6.2 -7.7 90 0.7 36 26   97.22   -14 LegendNANA
04:00 -6.4 -7.9 89 0.4 36 25   97.22   -14 LegendNANA
05:00 -6.5 -8.0 89 0.2 36 28   97.25   -15 LegendNANA
06:00 -6.4 -8.1 88 0.0 36 27   97.26   -14 LegendNANA
07:00 -6.5 -7.6 92 0.3 36 27   97.33   -15 LegendNANA
08:00 -6.3 -8.0 88 0.4 36 29   97.35   -15 LegendNANA
09:00 -6.0 -8.1 85 0.0 1 31   97.39   -14 LegendNANA
10:00 -5.4 -8.3 80 0.2 1 33   97.43   -14 LegendNANA
11:00 -5.0 -7.6 82 0.0 1 33   97.47   -13 LegendNANA
12:00 -5.1 -8.0 80 0.0 1 34   97.52   -14 LegendNANA
13:00 -5.0 -7.6 82 0.0 1 32   97.54   -13 LegendNANA
14:00 -4.4 -7.1 82 0.3 1 32   97.58   -12 LegendNANA
15:00 -4.3 -6.4 85 0.0 1 31   97.61   -12 LegendNANA
16:00 -4.8 -6.7 87 0.0 1 36   97.65   -13 LegendNANA
17:00 -4.9 -6.1 91 0.0 1 34   97.72   -13 LegendNANA
18:00 -5.2 -6.8 88 0.0 36 33   97.81   -14 LegendNANA
19:00 -5.3 -6.6 91 0.0 36 28   97.84   -13 LegendNANA
20:00 -5.3 -6.6 91 0.2 36 32   97.89   -14 LegendNANA
21:00 -5.4 -6.9 89 0.0 1 32   97.92   -14 LegendNANA
22:00 -5.5 -6.7 92 0.0 1 28   97.99   -13 LegendNANA
23:00 -5.4 -6.7 90 0.0 1 26   98.04   -13 LegendNANA

Notes on Data Quality.

Legend

  • E = Estimated
  • M = Missing
  • NA = Not Available*
  • [empty] = Indicates an unobserved value
Date modified: